Flag for France Weather past 2 weeks in Rennes, France

Now
66 °F

Clear.


Feels Like: 66 °F
Forecast: 58 / 78 °F
Wind: 6 mph from Southwest

Location: Rennes Airport

Current Time: Aug 3, 2015 at 12:55:47 AM

Latest Report: Aug 3, 2015 at 12:00 AM


Visibility: 10 mi

Pressure: 29.89 "Hg

Humidity: 52%

Dew point: 48 °F

Location of RennesLocation

Historic Weather in Rennes — Graph

°F

Rennes temperature yesterday

Maximum temperature yesterday: 88 °F (at 5:00 PM)
Minimum temperature yesterday: 48 °F (at 4:30 AM)
Average temperature yesterday: 70 °F

Past Weeks' High & Low Weather Summary

 TemperatureHumidityPressure
High88 °F (Aug 2, 5:00 PM)100% (Jul 20, 1:00 AM)30.15 "Hg (Jul 20, 1:00 AM)
Low45 °F (Jul 30, 6:30 AM)22% (Aug 2, 3:30 PM)29.62 "Hg (Jul 24, 5:30 PM)
Average64 °F71%29.97 "Hg
* Reported Jul 18 11:00 PM — Aug 2 11:30 PM, Rennes, Weather by CustomWeather, © 2015

Note: Actual official high and low records may vary slightly from our data, if they occured in-between our weather recording intervals... More about our weather records

Advertising

Rennes weather history for previous 24 hours

 ConditionsComfort  
Time TempWeatherWind HumidityBarometerVisibility
11:30 PM
Sun, Aug 2
68 °FClear.1 mph49%29.89 "Hg10 mi
11:00 PM70 °FClear.3 mph46%29.89 "Hg10 mi
10:30 PM73 °FSunny.8 mph41%29.89 "Hg10 mi
10:00 PM75 °FSunny.9 mph44%29.89 "Hg10 mi
9:30 PM77 °FSunny.10 mph39%29.86 "Hg10 mi
9:00 PM81 °FSunny.10 mph34%29.86 "Hg10 mi
8:30 PM82 °FPassing clouds.10 mph30%29.86 "HgN/A
8:00 PM86 °FSunny.12 mph24%29.86 "Hg10 mi
7:30 PM86 °FSunny.16 mph24%29.86 "Hg10 mi
7:00 PM88 °FSunny.16 mph22%29.86 "Hg10 mi
6:30 PM88 °FSunny.13 mph22%29.89 "Hg10 mi
6:00 PM86 °FPassing clouds.13 mph24%29.89 "HgN/A
5:30 PM88 °FSunny.14 mph22%29.89 "Hg10 mi
5:00 PM88 °FPassing clouds.14 mph22%29.89 "HgN/A
4:30 PM86 °FSunny.16 mph24%29.92 "Hg10 mi
4:00 PM86 °FPassing clouds.15 mph22%29.92 "HgN/A
3:30 PM86 °FPassing clouds.14 mph22%29.92 "HgN/A
3:00 PM86 °FPassing clouds.12 mph24%29.95 "HgN/A
2:30 PM84 °FSunny.13 mph25%29.95 "Hg10 mi
2:00 PM84 °FPassing clouds.14 mph27%29.95 "HgN/A
1:30 PM82 °FPassing clouds.13 mph26%29.98 "HgN/A
1:00 PM81 °FPassing clouds.15 mph28%29.98 "HgN/A
12:30 PM81 °FSunny.12 mph30%29.98 "Hg10 mi
12:00 PM79 °FPassing clouds.13 mph32%30.01 "HgN/A
11:30 AM77 °FPassing clouds.10 mph36%30.01 "HgN/A
11:00 AM73 °FPassing clouds.9 mph41%30.01 "HgN/A
10:30 AM72 °FPassing clouds.8 mph47%30.04 "HgN/A
10:00 AM68 °FPassing clouds.8 mph53%30.01 "HgN/A
9:30 AM64 °FPassing clouds.7 mph60%30.04 "HgN/A
9:00 AM61 °FSunny.8 mph68%30.04 "Hg10 mi
8:30 AM57 °FSunny.10 mph72%30.04 "Hg10 mi
8:00 AM55 °FPassing clouds.8 mph77%30.04 "HgN/A
7:30 AM54 °FPassing clouds.7 mph82%30.04 "HgN/A
7:00 AM50 °FPassing clouds.3 mph88%30.04 "HgN/A
6:30 AM50 °FClear.3 mph88%30.04 "Hg10 mi
6:00 AM52 °FClear.6 mph88%30.04 "Hg10 mi
5:30 AM50 °FClear.3 mph94%30.04 "Hg10 mi
5:00 AM50 °FClear.3 mph94%30.04 "Hg10 mi
4:30 AM48 °FClear.2 mph94%30.07 "Hg10 mi
4:00 AM50 °FClear.No wind94%30.07 "Hg10 mi
3:30 AM50 °FClear.No wind94%30.07 "Hg10 mi
3:00 AM52 °FClear.No wind88%30.07 "Hg10 mi
2:30 AM54 °FClear.3 mph88%30.07 "Hg10 mi
2:00 AM54 °FClear.2 mph88%30.07 "Hg10 mi
1:30 AM54 °FClear.3 mph88%30.09 "Hg10 mi
1:00 AM54 °FClear.2 mph88%30.09 "Hg10 mi
12:00 AM54 °FClear.5 mph88%30.09 "Hg10 mi
Weather by CustomWeather, © 2015

See weather overviewHow to use our weather pages